www.pogodaiklimat.ru

Погода и климат >> Архив погоды >> Португалия >> Фуншал


ПОГОДА в Фуншале

  • Прогноз погоды в Фуншале
  • Монитор погоды в Фуншале

АРХИВ ПОГОДЫ в Фуншале

Время (UTC), дата Ветер
(напр.,м/с)
 
Видим.   Явления Облачность Т
(С)
Тd
(С)
f
(%)
Тe
(С)
Тes
(С)
Комфортность P
(гПа)
Po
(гПа)
Тmin
(С)
Tmax
(С)
R
(мм)
R24
(мм)
S
(см)
19 12.06 н/о н/о +20.0 +9.7 51 1017.7 1010.9
20 12.06 С 1 н/о н/о +20.0 +12.5 62 +23 +23 комфорт 1017.8 1011.0
21 12.06 С 1 н/о н/о +19.9 +8.9 49 +22 +22 комфорт 1018.0 1011.2
22 12.06 СВ 4-9
{9}
н/о н/о +19.2 +7.2 46 +20 +20 1018.3 1011.5
23 12.06 С 3-10
{10}
н/о н/о +19.4 +7.9 47 +20 +20 1018.3 1011.5
00 13.06 нст 1
{7}
н/о н/о +19.4 +8.7 50 +21 +21 комфорт 1018.0 1011.2
01 13.06 С 2-5
{6}
н/о н/о +19.1 +6.3 43 +20 +20 1017.7 1010.9
02 13.06
{5}
н/о н/о +18.7 +7.0 46 1017.5 1010.6
03 13.06 штиль 0 н/о н/о +18.1 +7.5 50 +18 +18 1017.3 1010.4
04 13.06 н/о н/о +17.8 +7.0 49 1017.3 1010.4
05 13.06 н/о н/о +18.3 +8.4 52 1017.3 1010.5
06 13.06 нст 3-6
{6}
н/о н/о +18.2 +8.1 52 +19 +19 1017.8 1001.4 +17.8
07 13.06 -9
{9}
н/о н/о +18.7 +7.3 47 1017.8 1010.9
08 13.06 -7
{8}
н/о н/о +20.1 +6.1 40 1018.4 1011.5
09 13.06 нст 3-6
{8}
н/о н/о +19.5 +7.2 45 +20 +20 1018.9 1012.0
10 13.06 С 2 н/о н/о +20.2 +7.9 45 +22 +22 комфорт 1019.1 1012.3
11 13.06
{6}
н/о н/о +21.7 +8.2 42 1019.3 1012.5
12 13.06 С 1 н/о н/о +21.7 +9.4 45 +23 +23 комфорт 1019.3 1012.5
13 13.06 С 1 н/о н/о +20.9 +11.4 55 +24 +24 комфорт 1019.2 1012.4
14 13.06 С 1 н/о н/о +20.6 +11.2 55 +24 +24 комфорт 1019.2 1012.4
15 13.06 С 1 н/о н/о +20.6 +12.0 58 +24 +24 комфорт 1019.0 1012.2
16 13.06
{5}
н/о н/о +21.4 +12.4 56 1019.1 1012.3
17 13.06 н/о н/о +20.4 +11.9 58 1019.0 1012.2
18 13.06 нст 2 н/о н/о +20.7 +12.3 59 +24 +24 комфорт 1019.2 1012.3 +22.3
19 13.06 н/о н/о +20.0 +12.3 61 1019.5 1012.7
20 13.06 н/о н/о +19.6 +12.3 63 1020.0 1013.1
21 13.06 С 1 н/о н/о +19.4 +12.2 63 +22 +22 комфорт 1020.6 1013.8
22 13.06 штиль 0 н/о н/о +19.1 +11.2 60 +20 +20 1020.9 1014.0
23 13.06 штиль 0 н/о н/о +18.9 +11.2 61 +20 +20 1020.9 1014.0
00 14.06 С 1 н/о н/о +18.5 +10.8 61 +20 +20 1020.7 1013.8
01 14.06 н/о н/о +18.2 +10.4 60 1020.5 1013.6
02 14.06 С 1 н/о н/о +18.0 +10.2 60 +19 +19 1020.0 1013.1
03 14.06 С 1 н/о н/о +18.6 +10.7 60 +20 +20 1019.7 1012.8
04 14.06 СВ 1 н/о н/о +18.5 +10.6 60 +20 +20 1019.8 1012.9
05 14.06 СВ 1 н/о н/о +18.0 +10.4 61 +19 +19 1019.9 1013.0
06 14.06 нст 1 н/о н/о +17.5 +8.9 57 +19 +19 1020.4 1001.6 +17.4
07 14.06 С 1 20 км 8/3 750 м
[Cu Sc Ci]
+18.4 +8.1 51 +20 +20 1020.8 1013.9
08 14.06 Ю 1 20 км 5/1 750 м
[Cu Sc Ac lent Ci fib]
+20.3 +10.4 53 +23 +26 комфорт 1021.3 1014.5
09 14.06 нст 1 20 км 4/4 600 м
[]
+21.1 +11.8 55 +23 +28 комфорт 1030.1 1015.0
10 14.06 н/о н/о +20.9 +12.0 57 1022.1 1015.2
11 14.06 С 1 20 км 9/9 700 м
[Cu Sc Ac lent Ci fib]
+20.5 +11.7 57 +24 +26 комфорт 1022.3 1015.5
12 14.06 нст 1 20 км 9/8 600 м
[St Ac trans Ci ing]
+20.7 +12.2 58 +24 +26 комфорт 1030.1 1015.5
13 14.06 н/о н/о +21.5 +11.4 53 1022.2 1015.4
14 14.06 н/о н/о +22.2 +12.4 54 1021.9 1015.1
15 14.06 нст 1 20 км 8/8 600 м
[St Ac trans]
+21.6 +12.9 58 +24 +28 комфорт 1021.8 1015.0
16 14.06 н/о н/о +21.1 +13.4 61 1021.7 1014.8
17 14.06 С 1 н/о н/о +20.6 +12.8 61 +24 +24 комфорт 1021.8 1015.0
18 14.06 нст 1 25 км 9/9 600 м
[Cu Sc]
+20.4 +12.3 60 +24 +24 комфорт 1030.1 1014.8 +22.6
19 14.06 н/о н/о +20.2 +11.0 55 1022.0 1015.2
20 14.06 С 1 н/о н/о +19.9 +12.0 60 +23 +23 комфорт 1022.0 1015.2
21 14.06 штиль 0 н/о н/о +19.5 +12.0 62 +21 +21 комфорт 1022.3 1015.4
22 14.06 н/о н/о +19.0 +11.5 62 1022.7 1015.8
23 14.06 н/о н/о +18.7 +11.5 63 1023.1 1016.2
00 15.06 СВ 1 н/о н/о +18.6 +11.5 63 +20 +20 1023.0 1016.2
01 15.06 н/о н/о +18.2 +11.7 66 1022.4 1015.5
02 15.06 С 1 н/о н/о +17.9 +11.2 65 +19 +19 1022.1 1015.2
03 15.06 С 1 н/о н/о +17.4 +10.4 63 +18 +18 1021.6 1014.7
04 15.06 н/о н/о +17.3 +9.8 61 1021.4 1014.5
05 15.06 С 1 н/о н/о +17.2 +9.4 60 +18 +18 1021.5 1014.6
06 15.06 нст 1 н/о н/о +17.0 -21.7 6 +18 +18 1021.8 1001.4 +16.9
07 15.06 СВ 1 н/о н/о +17.3 +8.9 58 +18 +18 1021.8 1014.9
08 15.06 н/о н/о +20.9 +10.1 50 1022.2 1015.4
09 15.06 нст 3-6
{6}
н/о н/о +20.5 +12.5 60 +23 +23 комфорт 1021.9 1015.1
10 15.06 ЮВ 4-8
{8}
н/о н/о +21.1 +12.4 58 +23 +23 комфорт 1022.1 1015.3
11 15.06 В 4-8
{9}
н/о н/о +21.7 +12.5 56 +24 +24 комфорт 1022.1 1015.3
12 15.06 В 3-7
{9}
н/о н/о +22.3 +12.4 53 +25 +25 комфорт 1022.0 1015.2
13 15.06 В 3-7
{8}
н/о н/о +22.4 +12.5 53 +25 +25 комфорт 1021.9 1015.1
14 15.06 С 3-6
{8}
н/о н/о +22.0 +12.4 54 +24 +24 комфорт 1021.7 1014.9
15 15.06 нст 3-6
{9}
н/о н/о +21.3 +13.5 61 +24 +24 комфорт 1021.6 1014.8
16 15.06 В 3-7
{7}
н/о н/о +21.2 +13.0 59 +23 +23 комфорт 1021.2 1014.3
17 15.06 -5
{7}
н/о н/о +20.9 +12.9 60 1021.1 1014.2
18 15.06 нст 2
{6}
н/о н/о +21.2 +12.5 58 +23 +23 комфорт 1020.9 1014.1 +23.0
19 15.06 С 2 н/о н/о +20.4 +12.0 59 +23 +23 комфорт 1020.6 1013.8
20 15.06 н/о н/о +19.8 +11.7 60 1021.4 1014.5
21 15.06 С 1 н/о н/о +19.3 +12.9 66 +22 +22 комфорт 1021.9 1015.0
22 15.06 С 1 н/о н/о +18.7 +12.4 67 +21 +21 комфорт 1022.2 1015.4
23 15.06 штиль 0 н/о н/о +18.1 +12.1 68 +18 +18 1022.1 1015.2
00 16.06 С 1 н/о н/о +18.1 +11.9 67 +19 +19 1021.6 1014.7
01 16.06 н/о н/о +17.9 +11.6 67 1021.5 1014.6
02 16.06 С 1 н/о н/о +17.9 +11.7 67 +19 +19 1021.3 1014.4
03 16.06 С 1 н/о н/о +17.9 +11.5 66 +19 +19 1020.6 1013.7
04 16.06 н/о н/о +17.7 +12.1 70 1020.5 1013.6
05 16.06 н/о н/о +17.7 +11.4 67 1020.4 1013.5
06 16.06 нст 1 н/о н/о +17.6 +11.9 69 +19 +19 1020.5 1001.5 +17.5
07 16.06 С 1 н/о н/о +17.7 +12.0 69 +19 +19 1020.7 1013.8
08 16.06 н/о н/о +19.8 +13.0 65 1021.1 1014.2
09 16.06 С 1 н/о н/о +20.9 +13.5 63 +25 +25 комфорт 1021.4 1014.5
10 16.06 н/о н/о +21.7 +14.5 64 1021.6 1014.8
11 16.06 С 1 н/о н/о +21.3 +14.1 63 +24 +24 комфорт 1021.5 1014.7
12 16.06 нст 2
{5}
н/о н/о +22.5 +14.7 61 +26 +26 жарко 1021.9 1015.1
13 16.06 н/о н/о +21.8 +14.3 62 1021.3 1014.5
14 16.06 н/о н/о +21.6 +14.6 64 1021.2 1014.4
15 16.06 С 2 н/о н/о +22.1 +15.1 65 +26 +26 душно 1021.1 1014.3
16 16.06 С 2
{6}
н/о н/о +21.6 +14.7 65 +25 +25 комфорт 1020.9 1014.1
17 16.06
{5}
н/о н/о +21.3 +15.0 67 1020.7 1013.9
18 16.06 нст 2
{5}
н/о н/о +21.2 +15.0 68 +24 +24 комфорт 1020.4 1013.6 +22.9
19 16.06 С 2
{5}
н/о н/о +20.9 +14.5 67 +25 +25 комфорт 1020.1 1013.3
20 16.06 С 2 н/о н/о +20.2 +14.4 69 +23 +23 комфорт 1020.1 1013.2
21 16.06 С 1 н/о н/о +19.9 +14.2 70 +23 +23 комфорт 1020.1 1013.3
22 16.06 н/о н/о +19.9 +14.1 69 1020.5 1013.6
23 16.06 н/о н/о +20.1 +14.4 70 1020.5 1013.7
00 17.06 нст 2
{5}
н/о н/о +20.4 +15.1 72 +24 +24 комфорт 1020.1 1013.2
01 17.06
{5}
н/о н/о +20.3 +16.1 77 1019.4 1012.5
02 17.06
{5}
н/о н/о +20.2 +16.3 78 1018.5 1011.6
03 17.06 нст 3-6
{6}
н/о н/о +20.3 +16.8 80 +24 +24 комфорт 1018.2 1011.4 0.1
04 17.06 -5
{7}
н/о н/о +19.9 +16.9 83 1017.8 1010.9
05 17.06 С 3-6
{6}
н/о н/о +20.1 +17.3 84 +23 +23 комфорт 1017.3 1010.4
06 17.06 З 4-7
{7}
н/о н/о +20.3 +17.5 84 +24 +24 комфорт 1017.0 1001.8 +19.7 0.1
07 17.06 -5
{7}
н/о н/о +20.5 +17.8 85 1016.8 1010.0
08 17.06 З 3-7
{7}
н/о н/о +21.0 +18.2 84 +26 +26 душно 1017.0 1010.3
09 17.06 З 4-7
{8}
18 км {ливн. осадки} 8/4 300 м
[St Ac trans]
+21.0 +17.9 82 +25 +26 комфорт 1040.2 1010.4 0.1
10 17.06 З 4-8
{9}
н/о н/о +23.4 +16.6 66 +28 +28 душно 1017.1 1010.3
11 17.06 З 3-6
{8}
18 км 9/9 <50 м
[Cu Sc]
+23.2 +16.8 67 +28 +30 душно 1017.2 1010.5
12 17.06 З 3-7
{7}
15 км слаб. ливневой дождь 10/10 300 м
[St Ac trans]
+21.4 +17.9 80 +26 +26 душно 1030.1 1010.4 0.2
13 17.06 С 3-6
{8}
н/о н/о +20.7 +18.3 86 +25 +25 комфорт 1016.7 1009.9 2
14 17.06 З 3-6
{8}
6000 м слаб. дождь 10/10 300 м
[Frnb]
+20.9 +18.4 86 +26 +26 душно 1016.3 1009.5 0.3
15 17.06 З 5-10
{10}
12 км {ливн. осадки, дождь} 9/9 200 м
[Frnb]
+22.0 +19.3 85 +27 +28 душно 1016.3 1009.5 0.3
16 17.06 З 4-7
{10}
15 км 8/6 300 м
[Frnb Ac trans]
+21.8 +18.7 83 +27 +29 душно 1015.9 1009.1
17 17.06 З 4-7
{9}
15 км 6/5 450 м
[Cu med, cong Ac trans]
+23.1 +18.9 77 +29 +32 очень
душно
1015.7 1009.0
18 17.06 З 4-8
{8}
15 км {ливн. осадки, дождь} 3/1 540 м
[Cu med, cong Ac trans]
+22.3 +17.9 76 +27 +30 душно 1050.3 1008.5 +23.9 3
19 17.06 З 4-8
{8}
н/о н/о +21.7 +17.2 76 +26 +26 душно 1015.4 1008.6
20 17.06 З 3-6
{7}
н/о н/о +20.9 +16.8 77 +25 +25 комфорт 1015.6 1008.8
21 17.06 З 2
{8}
н/о н/о +20.3 +16.5 79 +24 +24 комфорт 1016.2 1009.4 3
22 17.06
{5}
н/о н/о +20.2 +14.6 70 1016.7 1009.9
23 17.06 н/о н/о +19.9 +14.5 71 1016.7 1009.9
00 18.06 нст 3-6
{6}
н/о н/о +20.3 +15.7 75 +23 +23 комфорт 1016.4 1009.6
01 18.06 С 2
{7}
н/о н/о +20.1 +15.1 73 +23 +23 комфорт 1015.8 1009.0
02 18.06 З 3-6
{6}
н/о н/о +19.8 +13.2 66 +22 +22 комфорт 1015.1 1008.3
03 18.06 нст 2
{6}
н/о н/о +19.6 +12.9 65 +22 +22 комфорт 1015.0 1008.2
04 18.06
{5}
н/о н/о +19.2 +11.5 61 1015.0 1008.2
05 18.06 С 3-7
{7}
н/о н/о +19.5 +13.2 67 +21 +21 комфорт 1015.0 1008.1
06 18.06 нст 1
{6}
н/о н/о +19.1 -27.1 3 +20 +20 1015.6 1001.6 +18.7
07 18.06 н/о н/о +19.4 +11.9 62 1016.0 1009.2
08 18.06 н/о н/о +21.6 +12.8 57 1016.4 1009.6
09 18.06 З 4-7
{7}
18 км 1/1 600 м
[]
+22.6 +16.4 68 +27 +32 душно 1030.2 1009.9
10 18.06 З 5-9
{9}
н/о н/о +23.0 +16.4 66 +28 +28 душно 1016.7 1010.0
11 18.06 С 2
{9}
18 км 3/3 700 м
[Cu hum]
+23.5 +16.6 65 +27 +39 душно 1017.5 1010.7
12 18.06 нст 3-7
{7}
18 км 3/3 600 м
[Cu hum]
+24.2 +16.1 61 +28 +39 душно 1030.1 1010.9
13 18.06
{7}
н/о н/о +24.2 +16.4 62 1017.7 1011.0
14 18.06
{7}
18 км 3/3 750 м
[Cu Sc]
+24.2 +16.8 63 1017.3 1010.6
15 18.06 нст 2-6
{7}
18 км 6/6 700 м
[Cu Sc]
+24.1 +17.0 65 +28 +35 душно 1017.4 1010.7
16 18.06 С 2-6
{8}
18 км 6/6 600 м
[Cu Sc]
+22.7 +16.7 69 +27 +33 душно 1017.6 1010.8
17 18.06
{6}
18 км 6/6 540 м
[Cu Sc]
+23.7 +17.0 66 1017.3 1010.6
18 18.06 нст 2
{7}
18 км 4/3 540 м
[Cu med, cong Ci fib]
+23.1 +17.0 69 +28 +31 душно 1050.3 1010.4 +24.7
19 18.06 -5
{5}
н/о н/о +21.9 +16.9 73 1017.5 1010.8
20 18.06
{6}
н/о н/о +21.2 +16.7 75 1017.9 1011.1
21 18.06 С 1 н/о н/о +20.7 +16.9 79 +25 +25 комфорт 1018.5 1011.7
22 18.06 н/о н/о +20.5 +17.1 81 1018.8 1012.0
23 18.06 штиль 0 н/о н/о +20.0 +16.8 82 +22 +22 комфорт 1019.0 1012.2
00 19.06 штиль 0 н/о н/о +19.9 +15.9 78 +22 +22 комфорт 1018.8 1012.0
01 19.06 н/о н/о +20.4 +16.3 77 1018.4 1011.6
02 19.06 штиль 0 н/о н/о +20.2 +16.7 80 +23 +23 комфорт 1018.0 1011.2
03 19.06 штиль 0 н/о н/о +20.0 +15.8 77 +22 +22 комфорт 1018.0 1011.1
04 19.06 штиль 0 н/о н/о +19.6 +15.4 77 +21 +21 комфорт 1018.1 1011.3
05 19.06 штиль 0 н/о н/о +18.8 +14.0 74 +20 +20 1018.2 1011.4
06 19.06 СВ 1 н/о н/о +19.2 +13.9 71 +22 +22 комфорт 1018.4 1001.6 +18.7
07 19.06 СВ 1 н/о н/о +19.5 +13.0 66 +22 +22 комфорт 1018.6 1011.8
08 19.06 С 1 н/о н/о +21.7 +14.5 64 +25 +25 комфорт 1018.8 1012.1
09 19.06 нст 1 18 км 1/1 700 м
[Cu hum]
+21.4 +17.4 78 +25 +33 комфорт 1030.1 1012.5
10 19.06 н/о н/о +22.0 +17.6 76 1019.7 1012.9
11 19.06 С 1 н/о н/о +23.1 +18.1 73 +29 +29 очень
душно
1020.0 1013.2
12 19.06 нст 2 18 км 5/5 600 м
[Cu hum]
+23.3 +18.5 74 +29 +39 душно 1030.1 1013.5
13 19.06 Ю 2 н/о н/о +23.2 +18.7 76 +29 +29 душно 1020.3 1013.5
14 19.06 18 км 8/8 400 м
[Cu Sc]
+22.2 +18.3 79 1020.1 1013.3
15 19.06 нст 2 18 км 8/8 540 м
[Cu Sc]
+23.7 +18.9 74 +28 +32 душно 1020.0 1013.3
17 19.06 С 1 18 км 6/6 480 м
[Cu med, cong]
+21.9 +16.9 73 +26 +30 душно 1020.1 1013.3
18 19.06 нст 1 18 км 8/8 480 м
[Cu med, cong]
+21.4 +17.3 77 +25 +26 комфорт 1040.2 1013.1 +24.0
19 19.06 Ю 1 н/о н/о +21.5 +17.1 76 +25 +25 комфорт 1020.1 1013.3
20 19.06 Ю 1 н/о н/о +21.0 +17.3 79 +26 +26 душно 1020.4 1013.6

 

Местоположение метеостанции Фуншал (Португалия): широта 32.63 долгота -16.90 высота над уровнем моря 56 м.

В архиве по умолчанию представлена погода в Фуншале за последнюю неделю. Архивные данные за месяц целиком и за предыдущие месяцы, начиная с января 2011 года, Вы можете получить, выбрав интересующий диапазон дат из раскрывающегося списка и нажав кнопку "Ввод!".


*Определитесь, кто Вы:
робот инопланетянин человек

Внимание! Время в таблицах - всемирное. Для получения местного времени необходимо прибавить поправку, которая равна 0 ч.

Смотрите также архив погоды в соседних городах и на ближайших метеорологических станциях:

Погода в Санта-Катарине (Португалия) (14 км)
Погода на Порту-Санту (Португалия) (71 км)
Погода на Пальме (Канарские Острова) (453 км)
Погода в Тасакорте (Канарские Острова) (459 км)
Погода на Тенерифе (Канарские Острова) (466 км)
Погода в Санта-Круз-де-Тенерифе (Канарские Острова) (469 км)
Погода в Пуэрто-де-ла-Крус (Канарские Острова) (469 км)
Погода в Тенерифе-Гуимаре (Канарские Острова) (482 км)
Погода в Обсерватории Izana (Канарские Острова) (483 км)
Погода в Сан-Себастьян-де-ла-Гомера (Канарские Острова) (505 км)

Пояснения к столбцам:

Ветер - указаны скорость ветра в м/с - средняя за 10 мин, порывы в срок и между сроками (в фигурных скобках) и направление, откуда дует ветер: С - северный, СВ - северо-восточный, В - восточный, ЮВ - юго-восточный, Ю - южный, ЮЗ - юго-западный, З - западный, СЗ - северо-западный.
Видимость - горизонтальная дальность видимости в метрах или километрах. При видимости от 1 до 10 км при отсутствии осадков обычно наблюдается дымка, при ухудшении видимости до 1 км и менее - туман. В сухую погоду видимость может ухудшаться дымом, пылью или мглою.
Явления - указаны атмосферные явления, наблюдавшиеся в срок или в последний час перед сроком; фигурными скобками обозначены явления, наблюдавшиеся между сроками (за 1-3 часа до срока); квадратными скобками обозначены град или гололедные отложения с указанием их диаметра в мм.
Облачность - указаны через наклонную черту общая и нижняя облачность в баллах и высота нижней границы облаков в метрах; квадратными скобками обозначены формы облаков: Ci - перистые, Cs - перисто-слоистые, Cc - перисто-кучевые, Ac - высококучевые, As - высокослоистые, Sc - слоисто-кучевые, Ns - слоисто-дождевые, Cu - кучевые, Cb - кучево-дождевые. Подробнее классификацию облаков см. в Атласе облаков (PDF).
T - Температура воздуха - температура, измеренная на высоте 2 м над землей.
Td - Температура точки росы - температура, при понижении до которой содержащийся в воздухе водяной пар достигнет насыщения.
f - Относительная влажность воздуха - влажноcть воздуха, измеренная на высоте 2 м над землей.
Te - Эффективная температура - температура, которую ощущает одетый по сезону человек в тени. Характеристика душности погоды. При расчете учитывается влияние влажности воздуха и скорости ветра на теплоощущения человека.
Tes - Эффективная температура на солнце - температура, которую ощущает человек, с поправкой на солнечный нагрев. Характеристика знойности погоды. Зависит от высоты солнца над горизонтом, облачности и скорости ветра. Ночью, в пасмурную погоду, а также при ветре 12 м/с и более поправка равна нулю.
P - Атмосферное давление - приведенное к уровню моря атмосферное давление.
Po - Атмосферное давление - измеренное на уровне метеостанции атмосферное давление.
Tmin - Минимальная температура - минимум температуры воздуха на высоте 2 м над землей.
Tmax - Максимальная температура - максимум температуры воздуха на высоте 2 м над землей.
R - Количество осадков - Количество выпавших осадков за период времени, мм. При наведении курсора мыши на число - период времени, за который выпало указанное количество осадков.
R24 - Количество осадков - Количество выпавших осадков за 24 часа, мм.
S - Снежный покров - Высота снежного покрова, см. При наведении курсора мыши на число - состояние снежного покрова и степень покрытия местности в баллах.